Location: Airlie Beach - Cannonvale QLD, Australia
(20.2768°S, 148.7558°E)
Time: 00:01:00
(UTC+10:00)

Hubble Space Telescope - Pass Details

Date: 22 May 2026
Orbit: 473 x 475 km, 28.5° (Epoch: 5 June)

Event Time Altitude Azimuth Distance (km) Brightness Sun altitude
Rises 18:49:16 0° 252° (WSW) 2,514 5.1 -17.6°
Reaches altitude 10° 18:51:48 10° 236° (SW) 1,638 3.8 -18.2°
Maximum altitude 18:54:50 23° 182° (S) 1,061 2.1 -18.8°
Enters shadow 18:55:05 22° 176° (S) 1,066 2.1 -18.9°
